Temp
40 40 39 39 39 39 38 39 38 39 39 39 38 39 39 40 40 40 40 40 41 40 40 40 40 40 40 39 38 38 38 37 38 37 35 35 36 35 35 34 33 33
39 40 40 39 39 39 39 39 39 38 39 39 39 39 40 40 40 39 40 40 40 40 40 40 40 40 39 39 38 38 38 38 39 39 37 37 36 35 35 34 34 34
39 38 38 38 38 38 38 39 39 39 39 39 39 39 39 40 39 40 40 40 39 40 40 40 40 40 39 39 39 39 38 38 38 37 37 37 37 37 37 36 35 34
38 38 38 38 38 38 38 38 38 38 38 38 38 39 39 39 39 39 39 40 39 39 40 39 39 39 39 39 38 39 38 38 38 37 37 38 38 37 38 37 37 36
37 37 38 38 38 38 38 37 37 37 37 38 38 38 38 38 38 38 38 39 39 39 39 39 39 39 39 39 38 38 38 38 38 37 37 37 38 37 38 37 37 37
37 37 37 37 37 37 37 36 36 37 37 37 37 38 38 38 37 37 37 37 38 38 38 38 38 38 38 38 38 37 37 37 37 37 36 36 37 38 38 37 37 36
36 36 36 37 36 37 36 36 36 36 36 36 37 36 37 37 36 37 37 37 37 37 37 37 37 37 38 37 37 36 36 36 36 36 35 36 36 36 37 37 37 36
35 36 36 36 36 35 35 35 35 35 36 36 35 36 36 36 36 36 36 36 36 36 36 36 36 36 36 37 36 35 35 35 35 34 34 34 35 35 36 36 36 35
35 35 35 35 34 34 34 34 34 35 35 34 35 35 35 35 35 35 35 35 35 35 35 35 35 35 36 36 35 34 34 34 34 33 33 33 33 34 34 35 35 35
34 34 34 34 33 34 33 33 34 34 34 34 34 34 34 35 35 34 34 34 33 34 34 34 34 34 34 35 35 34 33 33 33 33 33 33 33 33 34 34 34 33
32 32 32 32 32 33 32 33 33 33 33 33 33 33 33 33 33 33 33 32 32 32 32 33 33 33 33 33 34 34 33 33 32 32 32 32 32 33 34 33 33 32
31 31 31 31 32 32 32 32 32 32 32 32 32 32 32 32 32 32 32 31 31 31 32 32 32 32 32 32 32 33 32 32 32 32 32 31 32 32 32 32 32 32
30 30 31 30 31 31 31 32 31 31 31 31 32 31 31 31 31 30 31 30 30 31 31 31 31 31 31 32 32 32 31 31 31 31 30 30 31 31 32 31 31 31
30 30 30 30 30 30 30 31 31 31 30 30 30 30 30 30 29 29 30 30 29 29 30 30 30 30 31 31 31 31 31 30 30 29 29 29 29 30 30 30 30 31
29 29 29 29 29 29 29 29 29 29 29 29 29 29 30 29 29 29 28 28 28 28 28 29 28 29 31 31 30 30 30 29 29 28 27 27 27 28 28 29 29 30
28 28 28 27 27 27 27 28 28 28 28 28 28 28 28 28 28 28 27 27 27 27 27 27 27 29 32 33 33 31 29 29 28 27 26 26 26 26 27 28 28 28
27 27 27 26 26 26 26 26 27 27 27 27 27 27 27 27 27 26 26 26 26 26 25 26 26 28 32 32 32 33 30 28 27 26 26 26 26 25 25 26 26 26
26 26 25 25 25 25 25 25 26 26 25 26 26 26 26 26 25 25 25 25 25 24 24 25 25 29 31 31 31 31 32 29 27 25 25 25 25 24 24 24 24 24
25 24 24 24 24 24 25 25 24 24 24 24 24 25 25 24 23 23 23 23 23 23 23 24 23 28 29 30 30 31 31 29 26 25 24 24 24 23 23 22 23 23
24 24 23 23 24 24 24 23 23 22 23 23 23 24 23 22 22 22 22 22 22 22 22 22 23 26 28 29 29 30 30 28 25 23 23 23 22 22 22 22 22 22
23 23 23 23 23 23 22 22 22 21 21 22 22 22 21 21 21 20 21 21 21 22 21 21 22 26 27 28 28 28 28 26 23 22 22 21 21 21 21 21 21 21
22 22 22 21 21 21 20 20 20 20 20 21 20 21 21 21 21 21 20 20 21 21 20 19 21 25 26 27 27 27 26 22 21 20 19 19 19 20 20 20 20 19
21 21 21 20 20 19 19 19 19 19 19 20 19 20 19 19 19 19 20 20 20 19 18 18 19 23 25 25 25 26 23 20 20 19 19 18 18 18 18 18 18 18
20 20 19 19 19 18 18 18 19 19 19 19 18 18 17 18 18 18 19 19 18 17 18 17 18 21 22 23 24 23 22 19 19 17 16 16 16 16 17 16 17 18
19 19 19 18 17 17 17 17 18 17 18 18 18 18 17 18 17 17 17 17 18 17 18 17 18 17 21 21 22 22 22 18 17 15 14 14 14 13 14 15 14 15
18 18 18 17 16 17 17 17 17 16 17 16 16 17 15 16 16 15 15 15 16 16 16 17 16 15 17 20 20 21 21 18 16 13 12 12 13 12 12 13 14 14
MSLP
1021.29 1021.21 1021.29 1021.33 1021.49 1021.53 1021.57 1021.45 1021.41 1021.33 1021.33 1021.25 1021.17 1021.13 1020.97 1020.85 1020.57 1020.29 1020.09 1019.85 1019.65 1019.53 1019.37 1019.25 1019.05 1018.89 1018.77 1018.61 1018.57 1018.45 1018.41 1018.49 1018.53 1018.61 1018.61 1018.61 1018.61 1018.61 1018.61 1018.61 1018.69 1018.65
1021.65 1021.61 1021.65 1021.69 1021.73 1021.81 1021.81 1021.81 1021.77 1021.73 1021.73 1021.65 1021.61 1021.49 1021.29 1021.09 1020.89 1020.73 1020.49 1020.29 1020.01 1019.89 1019.73 1019.57 1019.45 1019.33 1019.21 1019.09 1018.97 1018.81 1018.77 1018.73 1018.69 1018.77 1018.69 1018.61 1018.61 1018.65 1018.57 1018.53 1018.45 1018.45
1022.05 1022.01 1022.05 1022.09 1022.21 1022.17 1022.13 1022.05 1021.97 1021.97 1021.97 1022.01 1021.85 1021.69 1021.61 1021.41 1021.25 1021.05 1020.85 1020.65 1020.45 1020.29 1020.09 1019.97 1019.77 1019.65 1019.53 1019.41 1019.25 1019.17 1019.17 1019.05 1019.05 1019.05 1018.89 1018.81 1018.77 1018.69 1018.61 1018.57 1018.53 1018.49
1022.41 1022.45 1022.45 1022.45 1022.45 1022.45 1022.41 1022.29 1022.29 1022.25 1022.21 1022.05 1022.13 1022.13 1021.97 1021.85 1021.65 1021.49 1021.29 1021.09 1020.97 1020.77 1020.61 1020.41 1020.29 1020.13 1019.97 1019.81 1019.61 1019.45 1019.41 1019.33 1019.37 1019.25 1019.09 1018.93 1018.85 1018.85 1018.69 1018.61 1018.49 1018.45
1022.77 1022.77 1022.77 1022.77 1022.77 1022.77 1022.69 1022.61 1022.69 1022.73 1022.65 1022.69 1022.53 1022.41 1022.33 1022.25 1022.13 1021.97 1021.81 1021.69 1021.49 1021.37 1021.17 1021.01 1020.81 1020.65 1020.49 1020.29 1020.17 1020.01 1019.89 1019.77 1019.61 1019.45 1019.29 1019.21 1019.13 1018.97 1018.81 1018.69 1018.57 1018.49
1023.05 1023.05 1023.09 1023.09 1023.13 1023.05 1023.01 1023.09 1023.21 1023.17 1023.13 1022.97 1023.01 1022.93 1022.85 1022.77 1022.65 1022.53 1022.37 1022.21 1022.05 1021.93 1021.77 1021.61 1021.41 1021.21 1021.01 1020.85 1020.65 1020.57 1020.53 1020.37 1020.21 1019.97 1019.77 1019.57 1019.49 1019.25 1019.05 1018.85 1018.69 1018.57
1023.33 1023.33 1023.37 1023.41 1023.41 1023.41 1023.41 1023.53 1023.53 1023.49 1023.45 1023.49 1023.29 1023.25 1023.25 1023.13 1023.01 1022.93 1022.81 1022.65 1022.49 1022.33 1022.25 1022.17 1021.97 1021.77 1021.53 1021.37 1021.21 1021.13 1021.01 1020.89 1020.73 1020.49 1020.29 1020.09 1019.89 1019.61 1019.41 1019.21 1018.97 1018.85
1023.61 1023.65 1023.69 1023.77 1023.73 1023.81 1023.89 1023.93 1023.89 1023.85 1023.81 1023.69 1023.65 1023.73 1023.57 1023.49 1023.37 1023.29 1023.17 1023.01 1022.81 1022.77 1022.69 1022.65 1022.49 1022.25 1022.01 1021.77 1021.65 1021.61 1021.53 1021.37 1021.25 1021.01 1020.81 1020.57 1020.29 1020.05 1019.81 1019.61 1019.41 1019.13
1023.77 1023.89 1024.01 1024.05 1024.09 1024.25 1024.25 1024.25 1024.21 1024.13 1024.05 1024.01 1023.97 1023.97 1023.81 1023.73 1023.73 1023.61 1023.49 1023.33 1023.21 1023.17 1023.09 1023.05 1022.97 1022.77 1022.49 1022.21 1022.05 1022.05 1021.97 1021.85 1021.77 1021.61 1021.37 1021.09 1020.81 1020.61 1020.33 1020.05 1019.73 1019.53
1024.01 1024.25 1024.33 1024.37 1024.41 1024.49 1024.53 1024.53 1024.49 1024.45 1024.37 1024.25 1024.21 1024.13 1024.09 1024.05 1023.97 1023.89 1023.73 1023.65 1023.61 1023.57 1023.49 1023.41 1023.29 1023.17 1022.93 1022.69 1022.49 1022.41 1022.29 1022.21 1022.09 1022.01 1021.85 1021.61 1021.33 1021.05 1020.73 1020.49 1020.29 1020.01
1024.41 1024.57 1024.61 1024.61 1024.65 1024.69 1024.81 1024.85 1024.81 1024.73 1024.61 1024.53 1024.45 1024.41 1024.41 1024.37 1024.25 1024.09 1024.01 1023.97 1024.01 1023.97 1023.93 1023.77 1023.69 1023.53 1023.33 1023.09 1022.93 1022.77 1022.65 1022.45 1022.33 1022.21 1022.13 1021.93 1021.73 1021.45 1021.17 1020.93 1020.73 1020.53
1024.73 1024.77 1024.81 1024.85 1024.93 1024.97 1025.05 1025.09 1025.05 1024.97 1024.93 1024.85 1024.81 1024.77 1024.73 1024.65 1024.57 1024.45 1024.41 1024.45 1024.45 1024.41 1024.33 1024.21 1024.05 1023.85 1023.65 1023.49 1023.29 1023.09 1022.93 1022.77 1022.61 1022.53 1022.37 1022.17 1021.93 1021.69 1021.45 1021.25 1021.09 1020.81
1024.97 1025.05 1025.13 1025.21 1025.25 1025.29 1025.29 1025.25 1025.21 1025.25 1025.21 1025.21 1025.13 1025.05 1024.97 1024.89 1024.89 1024.81 1024.77 1024.81 1024.77 1024.69 1024.53 1024.45 1024.29 1024.09 1023.89 1023.69 1023.53 1023.33 1023.17 1022.97 1022.85 1022.77 1022.69 1022.53 1022.25 1021.97 1021.69 1021.53 1021.33 1021.09
1025.29 1025.41 1025.45 1025.49 1025.53 1025.53 1025.49 1025.45 1025.45 1025.49 1025.49 1025.49 1025.37 1025.21 1025.17 1025.17 1025.13 1025.09 1025.09 1025.01 1024.97 1024.89 1024.77 1024.61 1024.49 1024.29 1024.01 1023.85 1023.73 1023.57 1023.37 1023.21 1023.09 1023.05 1022.97 1022.81 1022.53 1022.25 1022.01 1021.81 1021.57 1021.33
1025.65 1025.69 1025.69 1025.69 1025.73 1025.73 1025.73 1025.73 1025.73 1025.77 1025.77 1025.65 1025.57 1025.49 1025.41 1025.41 1025.37 1025.25 1025.21 1025.13 1025.09 1025.05 1024.93 1024.81 1024.65 1024.41 1024.13 1023.97 1023.81 1023.65 1023.53 1023.37 1023.33 1023.37 1023.29 1023.05 1022.77 1022.53 1022.25 1021.97 1021.81 1021.57
1025.93 1025.89 1025.93 1026.01 1026.05 1026.09 1026.09 1026.09 1026.05 1026.05 1026.01 1025.97 1025.85 1025.77 1025.69 1025.61 1025.61 1025.49 1025.45 1025.41 1025.33 1025.21 1025.09 1024.97 1024.89 1024.65 1024.37 1024.21 1024.01 1023.81 1023.69 1023.57 1023.57 1023.61 1023.45 1023.25 1023.01 1022.73 1022.45 1022.21 1022.09 1022.01
1026.09 1026.13 1026.25 1026.37 1026.45 1026.53 1026.53 1026.45 1026.45 1026.37 1026.29 1026.17 1026.05 1025.97 1025.89 1025.93 1025.89 1025.81 1025.73 1025.73 1025.65 1025.53 1025.41 1025.25 1025.17 1024.85 1024.49 1024.29 1024.09 1023.89 1023.73 1023.65 1023.73 1023.81 1023.61 1023.45 1023.21 1023.01 1022.81 1022.61 1022.57 1022.41
1026.25 1026.41 1026.57 1026.73 1026.73 1026.77 1026.73 1026.69 1026.61 1026.49 1026.41 1026.41 1026.33 1026.21 1026.21 1026.17 1026.13 1026.17 1026.09 1026.05 1026.01 1025.89 1025.77 1025.65 1025.53 1025.13 1024.77 1024.53 1024.29 1024.01 1023.65 1023.53 1023.73 1023.81 1023.65 1023.53 1023.45 1023.41 1023.33 1023.17 1022.93 1022.65
1026.53 1026.61 1026.73 1026.85 1026.89 1026.85 1026.85 1026.77 1026.69 1026.69 1026.69 1026.69 1026.61 1026.49 1026.41 1026.29 1026.37 1026.37 1026.33 1026.33 1026.25 1026.21 1026.09 1025.93 1025.81 1025.37 1025.01 1024.69 1024.37 1023.97 1023.69 1023.69 1023.81 1023.89 1023.77 1023.73 1023.73 1023.73 1023.61 1023.45 1023.13 1022.85
1026.65 1026.69 1026.73 1026.85 1026.89 1026.89 1026.93 1026.93 1026.93 1027.01 1027.05 1026.97 1026.85 1026.61 1026.53 1026.53 1026.53 1026.53 1026.49 1026.49 1026.45 1026.45 1026.37 1026.25 1026.09 1025.65 1025.29 1024.93 1024.53 1024.17 1024.05 1024.13 1024.25 1024.17 1024.09 1024.01 1023.97 1023.85 1023.69 1023.53 1023.37 1023.21
1026.77 1026.77 1026.89 1026.97 1027.01 1027.05 1027.13 1027.13 1027.17 1027.25 1027.21 1027.13 1027.05 1026.85 1026.85 1026.81 1026.85 1026.89 1026.85 1026.81 1026.77 1026.69 1026.65 1026.57 1026.37 1025.93 1025.57 1025.13 1024.77 1024.61 1024.37 1024.41 1024.49 1024.49 1024.41 1024.33 1024.21 1024.01 1023.93 1023.81 1023.77 1023.57
1027.01 1027.09 1027.09 1027.21 1027.25 1027.29 1027.33 1027.37 1027.41 1027.45 1027.49 1027.29 1027.25 1027.05 1027.13 1027.09 1027.21 1027.17 1027.17 1027.13 1027.01 1026.97 1026.89 1026.81 1026.57 1026.13 1025.69 1025.37 1025.21 1024.85 1024.69 1024.81 1024.85 1024.77 1024.69 1024.53 1024.37 1024.33 1024.25 1024.17 1024.13 1024.01
1027.29 1027.29 1027.33 1027.49 1027.53 1027.53 1027.61 1027.61 1027.61 1027.61 1027.57 1027.41 1027.49 1027.29 1027.41 1027.37 1027.49 1027.49 1027.37 1027.29 1027.21 1027.21 1027.09 1027.01 1026.73 1026.25 1025.93 1025.81 1025.49 1025.21 1025.09 1025.13 1025.01 1024.89 1024.81 1024.73 1024.73 1024.73 1024.61 1024.57 1024.41 1024.29
1027.45 1027.49 1027.69 1027.85 1027.81 1027.85 1027.89 1027.85 1027.73 1027.81 1027.81 1027.73 1027.77 1027.65 1027.77 1027.69 1027.77 1027.69 1027.57 1027.45 1027.45 1027.45 1027.21 1027.05 1026.81 1026.53 1026.45 1026.09 1025.85 1025.73 1025.45 1025.33 1025.17 1025.17 1025.25 1025.17 1025.09 1025.05 1024.93 1024.89 1024.77 1024.65
1027.73 1027.85 1028.01 1028.17 1028.13 1028.09 1028.09 1028.05 1027.93 1028.09 1028.05 1028.05 1028.01 1027.93 1028.09 1027.97 1027.97 1027.89 1027.81 1027.65 1027.57 1027.57 1027.33 1027.13 1026.97 1027.13 1026.81 1026.53 1026.41 1026.01 1025.61 1025.57 1025.61 1025.69 1025.65 1025.53 1025.37 1025.33 1025.25 1025.05 1024.93 1024.77
1027.93 1028.17 1028.21 1028.33 1028.41 1028.33 1028.25 1028.21 1028.21 1028.37 1028.29 1028.37 1028.33 1028.25 1028.37 1028.25 1028.17 1028.05 1027.97 1027.93 1027.69 1027.65 1027.53 1027.37 1027.37 1027.37 1027.09 1026.97 1026.69 1026.29 1026.01 1026.01 1026.13 1026.05 1025.93 1025.73 1025.61 1025.53 1025.29 1025.09 1024.89 1024.73
Wind_Speed
9 8 8 8 8 7 7 8 8 8 8 8 9 8 9 8 9 10 10 9 9 10 9 9 9 9 8 8 7 6 7 6 5 4 4 3 2 1 2 2 2 4
10 9 8 8 8 8 8 8 8 9 9 9 8 8 8 9 10 9 10 10 10 11 10 10 10 10 10 9 9 9 9 9 10 7 7 7 6 4 4 4 3 2
10 10 10 10 9 9 9 8 8 8 9 8 8 9 8 8 9 10 10 10 10 11 11 11 11 11 11 10 9 9 9 10 11 9 8 9 8 8 7 5 4 4
10 9 9 9 9 9 8 9 9 9 8 10 10 9 9 8 9 11 10 11 10 11 11 11 12 11 11 11 10 9 9 9 8 8 8 8 9 8 9 8 7 7
9 9 9 9 8 8 8 10 11 10 10 10 10 10 10 11 11 11 11 11 11 11 11 12 12 12 11 11 11 10 10 10 11 10 9 8 8 8 8 8 9 10
9 9 9 9 9 10 10 11 10 10 10 11 10 9 10 10 11 11 11 11 10 11 12 12 12 12 11 11 11 11 11 11 11 12 11 10 9 9 8 9 9 10
10 10 11 9 11 11 11 10 10 9 9 8 8 11 9 10 11 11 11 11 11 11 11 12 12 12 10 10 11 12 11 11 12 12 12 11 10 11 10 9 10 9
10 9 9 10 11 11 11 10 9 9 8 9 10 9 9 10 11 10 10 11 11 11 11 11 12 11 10 9 11 12 11 10 11 12 12 11 10 12 12 10 9 10
10 10 9 10 11 10 10 10 9 9 8 9 9 9 9 10 10 10 10 11 11 11 10 10 12 11 11 10 10 12 11 11 10 11 12 12 12 11 11 10 11 10
11 9 9 8 9 9 10 9 9 8 7 9 8 9 10 9 9 10 10 11 10 11 10 10 11 11 11 11 11 11 11 11 11 11 10 10 11 11 11 11 11 11
9 8 9 9 9 8 9 9 9 8 8 9 8 9 9 9 9 9 10 11 11 10 10 10 10 10 10 11 11 10 10 10 10 10 10 10 10 10 10 11 11 11
8 8 9 9 8 8 8 8 8 8 8 8 8 8 9 9 10 10 10 10 10 9 9 9 9 10 10 10 11 10 10 9 8 9 10 11 11 10 10 10 11 11
9 9 8 8 8 7 6 7 8 8 9 9 8 8 9 9 9 9 9 9 9 8 9 9 9 9 9 10 10 10 10 9 9 9 10 9 10 10 9 9 10 10
8 7 7 7 7 7 7 7 7 8 8 7 7 8 9 9 9 9 7 7 7 7 7 7 8 7 8 9 9 10 10 9 9 10 10 10 10 9 9 9 9 9
6 6 6 7 7 7 8 8 7 6 7 6 7 7 6 7 7 8 8 8 8 7 7 7 7 8 8 11 11 11 10 9 9 10 10 10 10 10 9 9 9 9
7 7 7 7 8 8 7 7 6 6 6 6 7 7 7 7 8 8 8 9 10 9 8 7 8 6 15 22 19 13 10 8 8 9 10 9 9 9 9 9 10 11
7 7 7 8 7 6 6 6 6 5 6 7 7 7 8 8 8 9 9 9 9 9 9 8 8 9 22 21 21 22 14 9 8 8 8 8 8 10 10 11 11 12
6 6 7 6 6 6 5 5 5 7 8 8 7 8 8 7 8 9 8 8 8 9 9 9 8 16 22 22 22 23 22 12 6 7 7 7 8 10 10 11 12 11
5 6 6 6 6 6 6 6 7 8 8 8 9 7 7 9 9 9 9 9 9 9 9 9 7 17 21 22 23 24 24 16 8 9 9 9 9 10 10 10 9 10
5 5 7 7 6 6 6 7 8 8 7 7 6 7 8 8 9 10 9 10 10 10 9 9 8 17 21 22 22 23 23 17 9 10 8 9 10 10 10 10 10 11
6 6 6 7 6 6 6 7 8 7 8 8 7 7 9 9 10 10 9 9 9 9 8 9 9 19 19 21 22 24 23 15 9 9 9 10 9 8 10 10 11 10
6 5 6 6 6 6 7 8 8 7 8 7 7 6 7 6 7 7 7 8 8 8 8 9 9 17 19 21 24 23 22 11 10 9 9 8 8 10 10 9 10 11
6 6 6 7 6 6 7 7 7 7 7 6 7 7 7 7 7 7 6 7 8 8 8 8 8 13 19 22 21 24 19 11 11 9 9 10 11 11 10 11 10 12
6 6 6 6 6 7 6 6 6 6 6 6 6 6 7 7 7 6 6 7 8 8 9 8 7 13 21 19 21 25 21 12 10 10 11 11 11 11 10 10 12 18
6 6 5 5 6 6 6 6 6 6 6 6 5 5 6 6 6 6 6 6 7 8 10 10 8 11 16 19 24 23 18 12 12 10 11 12 11 11 10 9 9 11
5 5 5 5 6 5 6 6 5 6 6 6 6 6 5 6 5 6 7 7 7 8 8 9 9 8 12 22 23 22 22 15 10 11 12 13 12 11 11 10 10 9
Wind_Direction
48 48 50 49 47 42 36 34 29 35 32 26 28 16 17 7 9 12 11 15 17 21 17 17 16 19 13 14 13 15 20 12 18 22 4 355 340 322 292 272 230 220
46 49 49 50 48 40 40 39 37 38 34 32 27 22 19 17 16 18 17 17 19 21 20 21 22 22 21 19 15 20 16 15 14 9 4 6 1 358 347 333 319 284
50 49 50 48 47 42 41 39 42 39 39 34 33 30 26 23 21 21 24 23 24 22 22 21 23 22 23 23 23 28 25 19 17 3 9 6 359 3 350 347 344 340
52 53 53 54 50 49 42 46 42 41 36 37 32 28 29 25 25 25 24 25 26 25 22 23 23 21 21 21 22 27 24 26 18 12 16 12 11 1 359 352 349 350
56 54 53 53 51 50 48 47 42 37 38 35 33 28 29 26 26 25 24 25 26 25 23 23 21 22 19 21 20 24 20 17 13 12 17 18 11 8 359 359 356 353
56 56 53 52 48 47 47 46 40 39 36 36 33 32 31 29 30 28 25 26 25 27 26 23 21 20 20 21 22 24 18 16 9 9 11 13 7 9 4 1 359 358
54 52 50 49 51 46 49 44 40 38 38 37 37 37 30 32 32 29 26 26 26 28 28 24 19 18 18 21 26 22 18 14 10 9 9 6 4 5 6 3 0 356
58 55 53 51 52 47 47 44 40 38 35 36 43 35 33 35 33 30 27 25 27 25 26 25 20 17 13 19 25 21 18 15 9 7 7 4 4 4 0 1 356 355
60 55 52 51 54 50 48 44 39 39 34 41 40 37 35 36 33 31 29 28 28 25 22 25 20 15 11 13 21 20 15 13 10 7 5 2 2 0 357 354 356 355
60 56 55 54 56 51 50 43 40 38 35 40 40 39 38 33 34 32 32 30 29 25 21 21 21 15 13 14 14 15 11 8 7 7 5 0 358 355 355 357 354 351
64 58 57 54 53 51 49 44 39 37 34 37 37 39 36 34 31 32 32 29 26 21 18 18 17 11 13 13 13 11 6 4 4 5 3 358 355 353 352 355 353 351
65 58 54 51 49 47 46 44 43 38 35 34 33 37 36 35 33 29 30 26 24 17 17 16 12 10 11 12 8 5 3 2 3 4 1 354 350 350 352 355 352 346
61 57 55 51 47 45 43 45 44 38 35 35 27 34 36 33 30 33 27 27 21 16 16 14 9 6 9 10 6 3 1 359 2 4 359 352 346 345 348 351 349 344
61 59 57 54 50 46 44 44 44 41 38 33 31 34 36 33 28 27 25 26 23 19 12 15 7 4 9 10 7 2 359 0 2 1 355 349 346 347 349 348 345 344
65 61 57 54 49 47 43 40 40 41 37 33 35 35 35 35 29 25 21 22 22 21 15 16 11 6 9 6 2 1 0 0 4 0 353 348 348 348 346 348 350 353
66 62 56 50 47 42 38 36 37 35 36 33 34 33 33 30 28 23 24 20 14 11 12 16 11 3 6 6 6 3 359 1 4 359 352 347 347 347 348 356 360 356
64 60 54 52 47 44 37 36 36 33 36 33 29 30 29 28 24 22 23 17 15 9 8 11 5 359 3 4 3 2 360 360 5 356 347 344 349 353 353 355 352 346
63 65 60 55 52 46 41 37 36 35 34 29 24 27 23 25 26 22 21 17 14 11 10 7 1 357 1 0 0 359 357 2 10 354 350 352 360 359 353 348 342 340
65 69 67 59 50 47 41 38 37 35 31 26 20 19 18 24 21 17 18 15 14 11 7 2 357 355 359 359 359 359 3 7 9 0 356 357 357 353 347 344 339 341
60 63 62 55 48 45 42 40 39 36 28 26 14 18 20 19 16 16 12 13 9 8 3 359 355 354 357 358 358 2 3 3 0 354 352 353 351 346 346 344 348 348
51 55 57 50 44 45 40 42 38 32 25 23 14 19 17 17 11 8 5 5 0 2 360 356 353 352 357 359 1 359 357 2 0 355 352 348 345 347 353 352 355 349
50 49 56 49 43 41 41 39 36 30 22 18 11 17 17 16 11 10 1 2 355 0 358 352 350 352 359 3 359 358 5 3 358 350 348 351 355 3 358 359 354 353
45 50 50 45 39 40 37 33 32 24 22 17 12 12 10 10 7 360 354 355 358 360 356 347 348 354 6 359 1 3 1 354 352 355 357 0 357 355 355 352 350 353
43 46 50 40 40 41 33 28 31 27 24 10 10 5 3 4 355 355 353 357 2 357 350 349 339 5 1 0 5 359 357 358 357 2 357 353 351 352 349 347 345 346
46 41 53 42 43 36 31 27 26 24 14 9 5 8 1 354 349 353 351 353 4 352 350 352 3 10 1 7 0 357 1 6 1 359 353 349 347 345 344 345 345 345
52 49 48 50 42 30 33 29 29 23 8 9 2 3 354 349 353 352 0 355 359 356 356 357 2 2 3 3 358 358 2 3 359 357 349 345 346 343 340 344 345 348